KLM696 EPKK-LOWW

Flight info

Callsign KLM696
Flight time N/A
Altitude 24000
Route BABKO DCT VADEX DCT BABNI DCT TUTPI P182 REKLU REKLU3W
Aircraft B77W/H-SDE1E2E3FGHIJ2J3J4J5M1RWXY/LB1D1

Departure

Time 2026-05-04 19:23
Airport Kraków John Paul II International Airport (EPKK)

Arrival

Time N/A
Airport Vienna International Airport (LOWW)
Time Latitude Longitude Altitude Speed Heading
2026-05-04 18:43 50.07349 19.80203 805 ft 0 kts 168°
2026-05-04 19:10 50.07355 19.80201 805 ft 2 kts 167°
2026-05-04 19:10 50.07376 19.80195 805 ft 2 kts 172°
2026-05-04 19:10 50.07393 19.80192 805 ft 2 kts 177°
2026-05-04 19:11 50.07410 19.80192 805 ft 2 kts 192°
2026-05-04 19:11 50.07424 19.80204 805 ft 2 kts 248°
2026-05-04 19:11 50.07427 19.80215 805 ft 0 kts 259°
2026-05-04 19:11 50.07427 19.80224 805 ft 0 kts 257°
2026-05-04 19:16 50.07425 19.80208 805 ft 4 kts 257°
2026-05-04 19:16 50.07416 19.80141 805 ft 8 kts 257°
2026-05-04 19:16 50.07403 19.80054 805 ft 8 kts 257°
2026-05-04 19:17 50.07404 19.79970 805 ft 8 kts 305°
2026-05-04 19:17 50.07459 19.79953 805 ft 8 kts 345°
2026-05-04 19:17 50.07515 19.79933 805 ft 8 kts 349°
2026-05-04 19:17 50.07572 19.79913 805 ft 8 kts 346°
2026-05-04 19:18 50.07629 19.79892 805 ft 8 kts 347°
2026-05-04 19:18 50.07686 19.79876 805 ft 8 kts
2026-05-04 19:18 50.07723 19.79941 805 ft 9 kts 78°
2026-05-04 19:18 50.07735 19.80035 805 ft 9 kts 78°
2026-05-04 19:19 50.07748 19.80126 805 ft 9 kts 77°
2026-05-04 19:19 50.07761 19.80219 805 ft 9 kts 77°
2026-05-04 19:19 50.07775 19.80311 805 ft 9 kts 67°
2026-05-04 19:19 50.07823 19.80342 805 ft 7 kts 355°
2026-05-04 19:20 50.07827 19.80340 805 ft 0 kts 349°
2026-05-04 19:20 50.07828 19.80340 805 ft 0 kts 349°
2026-05-04 19:20 50.07843 19.80336 805 ft 4 kts 349°
2026-05-04 19:21 50.07887 19.80323 805 ft 8 kts 348°
2026-05-04 19:21 50.07956 19.80300 805 ft 12 kts 348°
2026-05-04 19:21 50.08011 19.80262 805 ft 9 kts 300°
2026-05-04 19:21 50.08006 19.80168 805 ft 9 kts 258°
2026-05-04 19:22 50.07993 19.80074 806 ft 9 kts 258°
2026-05-04 19:22 50.07980 19.79972 805 ft 16 kts 258°
2026-05-04 19:22 50.07904 19.79412 805 ft 105 kts 257°
2026-05-04 19:22 50.07662 19.77708 849 ft 207 kts 257°
2026-05-04 19:23 50.07342 19.75532 2287 ft 194 kts 256°
2026-05-04 19:23 50.07057 19.73515 3588 ft 199 kts 256°
2026-05-04 19:23 50.06742 19.71265 3963 ft 223 kts 256°
2026-05-04 19:23 50.06402 19.68837 4759 ft 230 kts 254°
2026-05-04 19:24 50.05707 19.66623 5505 ft 235 kts 227°
2026-05-04 19:24 50.04348 19.65193 6218 ft 250 kts 202°
2026-05-04 19:24 50.02607 19.64414 6732 ft 265 kts 197°
2026-05-04 19:24 50.00823 19.63650 7577 ft 270 kts 197°
2026-05-04 19:25 49.98966 19.62851 8535 ft 273 kts 197°
2026-05-04 19:25 49.97138 19.62071 9516 ft 274 kts 197°
2026-05-04 19:25 49.95277 19.61280 10399 ft 279 kts 197°
2026-05-04 19:25 49.93333 19.60454 10825 ft 301 kts 197°
2026-05-04 19:26 49.91209 19.59549 11058 ft 330 kts 197°
2026-05-04 19:26 49.88920 19.58576 11340 ft 354 kts 197°
2026-05-04 19:26 49.86506 19.57555 12100 ft 364 kts 197°
2026-05-04 19:26 49.84040 19.56515 12992 ft 370 kts 197°
2026-05-04 19:27 49.81552 19.55465 13993 ft 373 kts 197°
2026-05-04 19:27 49.79029 19.54401 14870 ft 377 kts 197°
2026-05-04 19:27 49.76470 19.53321 15677 ft 384 kts 197°
2026-05-04 19:27 49.73871 19.52225 16484 ft 390 kts 197°
2026-05-04 19:28 49.71261 19.51125 17288 ft 396 kts 197°
2026-05-04 19:28 49.68571 19.49994 18141 ft 400 kts 197°
2026-05-04 19:28 49.65847 19.48849 18842 ft 407 kts 197°
2026-05-04 19:28 49.63177 19.47475 19448 ft 411 kts 205°
2026-05-04 19:29 49.60661 19.45295 20189 ft 412 kts 216°
2026-05-04 19:29 49.58427 19.42557 21168 ft 408 kts 225°
2026-05-04 19:29 49.56476 19.39445 21913 ft 406 kts 228°
2026-05-04 19:29 49.54542 19.36238 22023 ft 410 kts 228°
2026-05-04 19:30 49.52605 19.33012 22164 ft 411 kts 228°
2026-05-04 19:30 49.50653 19.29779 22598 ft 408 kts 228°
2026-05-04 19:30 49.48729 19.26616 22962 ft 407 kts 228°
2026-05-04 19:30 49.46779 19.23433 23360 ft 406 kts 228°
2026-05-04 19:31 49.44835 19.20275 23726 ft 405 kts 228°
2026-05-04 19:31 49.42906 19.17150 23944 ft 411 kts 227°
2026-05-04 19:31 49.40918 19.13934 23979 ft 416 kts 227°
2026-05-04 19:31 49.38914 19.10699 24030 ft 418 kts 227°
2026-05-04 19:32 49.36904 19.07457 24030 ft 417 kts 227°
2026-05-04 19:32 49.34913 19.04251 24025 ft 419 kts 227°
2026-05-04 19:32 49.32850 19.00931 24045 ft 436 kts 227°
2026-05-04 19:32 49.30741 18.97540 24042 ft 444 kts 227°
2026-05-04 19:33 49.28629 18.94152 24021 ft 431 kts 227°
2026-05-04 19:33 49.26594 18.90896 24022 ft 417 kts 227°
2026-05-04 19:33 49.24704 18.87628 24021 ft 411 kts 232°
2026-05-04 19:33 49.23032 18.84051 24035 ft 417 kts 237°
2026-05-04 19:34 49.21386 18.80335 24034 ft 422 kts 237°
2026-05-04 19:34 49.19746 18.76634 24027 ft 422 kts 236°
2026-05-04 19:34 49.18110 18.72961 24022 ft 421 kts 236°
2026-05-04 19:34 49.16425 18.69199 24020 ft 421 kts 236°
2026-05-04 19:35 49.14778 18.65535 24017 ft 420 kts 236°
2026-05-04 19:35 49.13115 18.61849 24020 ft 420 kts 236°
2026-05-04 19:35 49.11460 18.58185 24026 ft 420 kts 236°
2026-05-04 19:35 49.09795 18.54508 24026 ft 420 kts 236°
2026-05-04 19:36 49.08136 18.50846 24020 ft 420 kts 236°
2026-05-04 19:36 49.06475 18.47185 24026 ft 419 kts 236°
2026-05-04 19:36 49.04809 18.43520 24026 ft 419 kts 236°
2026-05-04 19:36 49.03155 18.39885 24027 ft 419 kts 236°
2026-05-04 19:37 49.01499 18.36245 24023 ft 420 kts 236°
2026-05-04 19:37 48.99812 18.32547 24025 ft 420 kts 236°
2026-05-04 19:37 48.98141 18.28891 24024 ft 420 kts 236°
2026-05-04 19:37 48.96565 18.25156 24019 ft 419 kts 241°
2026-05-04 19:38 48.95262 18.21203 24022 ft 419 kts 247°
2026-05-04 19:38 48.94129 18.17152 24020 ft 419 kts 248°
2026-05-04 19:38 48.93374 18.14437 24018 ft 419 kts 248°
2026-05-04 19:38 48.92226 18.10326 24010 ft 419 kts 248°
2026-05-04 19:39 48.90712 18.04938 24009 ft 419 kts 248°
2026-05-04 19:39 48.89565 18.00863 24006 ft 419 kts 248°
2026-05-04 19:39 48.88797 17.98136 24004 ft 419 kts 247°
2026-05-04 19:39 48.87643 17.94043 24001 ft 418 kts 247°
2026-05-04 19:40 48.86509 17.90024 23998 ft 418 kts 247°
2026-05-04 19:40 48.85355 17.85939 23996 ft 418 kts 247°
2026-05-04 19:40 48.84371 17.82465 23998 ft 418 kts 247°
2026-05-04 19:40 48.83215 17.78386 23996 ft 419 kts 247°
2026-05-04 19:41 48.82097 17.74450 23995 ft 419 kts 247°
2026-05-04 19:41 48.80945 17.70395 23997 ft 419 kts 247°
2026-05-04 19:41 48.79791 17.66342 23992 ft 420 kts 247°
2026-05-04 19:41 48.78631 17.62278 23991 ft 420 kts 247°